Westerly, RI

2:01 AM EDT on August 22, 2017 (GMT -0400)
Westerly State

Weather History for KWST - December, 2013

Change the Weather History Date:

Thursday, December 26, 2013

  Actual Average (KGON) Record (KGON)
Temperature  
Mean Temperature 32 °F -  
Max Temperature 42 °F 38 °F 63 °F (1982)
Min Temperature 23 °F 21 °F -10 °F (1980)
Degree Days  
Heating Degree Days 32    
Moisture  
Dew Point 24 °F    
Average Humidity 76    
Maximum Humidity 93    
Minimum Humidity 68    
Precipitation  
Precipitation 0.00 in - - ()
Sea Level Pressure  
Sea Level Pressure 30.28 in    
Wind  
Wind Speed 5 mph (NW)    
Max Wind Speed 9 mph    
Max Gust Speed -    
Visibility 10 miles    
Events Rain    
Averages and records for this station are not official NWS values.
T = Trace of Precipitation, MM = Missing Value Source: NWS Daily Summary

Daily Weather History Graph

Daily Weather History Graph

Search for Another Location

Airport or City:

Trip Planner

Search our weather history database for the weather conditions in past years. The results will help you decide how hot, cold, wet, or windy it might be!

Date:

Astronomy

Dec. 26, 2013 Rise Set
Actual Time 7:11 AM EST 4:24 PM EST
Civil Twilight 6:40 AM EST 4:55 PM EST
Nautical Twilight 6:05 AM EST 5:30 PM EST
Astronomical Twilight 5:32 AM EST 6:03 PM EST
Moon 12:34 AM EST (12/26) 12:00 PM EST (12/26)
Length of Visible Light 10h 14m
Length of Day
9h 12m
Last Quarter, 38% of the Moon is Illuminated
Dec 26
Last Quarter
Jan 1
New
Jan 7
First Quarter
Jan 15
Full
Jan 24
Last Quarter

Hourly Weather History & Observations

Time (EST) Temp. Windchill Dew Point Humidity Pressure Visibility Wind Dir Wind Speed Gust Speed Precip Events Conditions
12:53 AM 23.0 °F 14.7 °F 14.0 °F 68% 30.45 in 10.0 mi North 6.9 mph - N/A   Overcast
1:53 AM 24.1 °F 18.2 °F 16.0 °F 71% 30.45 in 10.0 mi NNE 4.6 mph - N/A   Overcast
2:01 AM 25.0 °F 19.3 °F 16.0 °F 69% 30.45 in 10.0 mi North 4.6 mph - N/A   Overcast
2:28 AM 25.0 °F 19.3 °F 17.1 °F 72% 30.44 in 10.0 mi NNE 4.6 mph - N/A   Overcast
2:53 AM 25.0 °F 19.3 °F 17.1 °F 72% 30.44 in 10.0 mi North 4.6 mph - N/A   Overcast
3:53 AM 26.1 °F 20.5 °F 19.0 °F 75% 30.41 in 10.0 mi Variable 4.6 mph - N/A   Overcast
4:53 AM 27.0 °F 20.5 °F 19.9 °F 75% 30.39 in 10.0 mi North 5.8 mph - N/A   Overcast
5:53 AM 27.0 °F - 21.0 °F 78% 30.37 in 10.0 mi Calm Calm - N/A   Overcast
6:53 AM 27.0 °F 21.6 °F 21.0 °F 78% 30.35 in 10.0 mi NNW 4.6 mph - N/A   Overcast
7:53 AM 27.0 °F 21.6 °F 21.9 °F 81% 30.32 in 10.0 mi North 4.6 mph - N/A   Overcast
8:53 AM 28.9 °F 25.2 °F 23.0 °F 78% 30.32 in 10.0 mi North 3.5 mph - N/A   Overcast
9:53 AM 32.0 °F 28.7 °F 25.0 °F 75% 30.29 in 10.0 mi North 3.5 mph - N/A   Mostly Cloudy
10:53 AM 35.1 °F 32.2 °F 28.0 °F 76% 30.25 in 10.0 mi NNE 3.5 mph - N/A   Mostly Cloudy
11:53 AM 37.0 °F 34.5 °F 28.9 °F 73% 30.19 in 10.0 mi North 3.5 mph - N/A   Overcast
12:53 PM 42.1 °F 36.6 °F 35.1 °F 76% 30.13 in 8.0 mi South 9.2 mph - 0.00 in Rain Light Rain
1:34 PM 41.0 °F 35.8 °F 37.9 °F 89% 30.10 in 6.0 mi SSW 8.1 mph - 0.00 in Rain Light Rain
1:53 PM 39.0 °F 32.8 °F 37.0 °F 93% 30.12 in 4.0 mi West 9.2 mph - 0.00 in Rain Light Rain
2:53 PM 36.0 °F 32.1 °F 33.1 °F 89% 30.12 in 10.0 mi Variable 4.6 mph - 0.00 in   Overcast
3:53 PM 36.0 °F 30.3 °F 28.0 °F 73% 30.13 in 10.0 mi West 6.9 mph - N/A   Scattered Clouds
4:53 PM 34.0 °F 29.8 °F 26.1 °F 73% 30.15 in 10.0 mi West 4.6 mph - N/A   Partly Cloudy
5:53 PM 33.1 °F 26.9 °F 24.1 °F 70% 30.18 in 10.0 mi West 6.9 mph - N/A   Clear
6:53 PM 32.0 °F 28.7 °F 23.0 °F 69% 30.21 in 10.0 mi Variable 3.5 mph - N/A   Clear
7:53 PM 30.9 °F - 23.0 °F 72% 30.23 in 10.0 mi Calm Calm - N/A   Clear
8:53 PM 30.0 °F 25.2 °F 23.0 °F 75% 30.24 in 10.0 mi West 4.6 mph - N/A   Clear
9:53 PM 30.9 °F 25.2 °F 23.0 °F 72% 30.25 in 10.0 mi West 5.8 mph - N/A   Clear
10:53 PM 30.0 °F 25.2 °F 23.0 °F 75% 30.25 in 10.0 mi West 4.6 mph - N/A   Clear
11:53 PM 28.9 °F 25.2 °F 23.0 °F 78% 30.25 in 10.0 mi WSW 3.5 mph - N/A   Clear